owner,sensor,date,latitude,longitude,vertical_datum,direction_of_sea_water_velocity,sea_water_speed,upward_sea_water_velocity,qcFlag 
ADCP,ioos:station:wmo:42372:1,2016-10-01T01:57:00Z,27.7800,-90.5180,34.2,221.0,16.4,-0.7,'1111122,1111122,1111122' 
ADCP,ioos:station:wmo:42372:1,2016-10-01T02:57:00Z,27.7800,-90.5180,34.2,223.0,17.5,-3.2,'1111122,1111122,1111122' 
ADCP,ioos:station:wmo:42372:1,2016-10-01T04:57:00Z,27.7800,-90.5180,34.1,214.0,20.1,-0.1,'1111122,1111122,1111122' 
ADCP,ioos:station:wmo:42372:1,2016-10-01T06:27:00Z,27.7800,-90.5180,34.1,214.0,16.0,-0.7,'1111122,1111122,1111122' 
ADCP,ioos:station:wmo:42372:1,2016-10-01T07:27:00Z,27.7800,-90.5180,34.0,210.0,13.6,-1.7,'1111122,1111122,1111122' 
ADCP,ioos:station:wmo:42372:1,2016-10-01T08:27:00Z,27.7800,-90.5180,34.0,216.0,12.6,-2.4,'1111122,1111122,1111122' 
ADCP,ioos:station:wmo:42372:1,2016-10-01T09:27:00Z,27.7800,-90.5180,34.2,216.0,13.8,-0.6,'1111122,1111122,1111122' 
ADCP,ioos:station:wmo:42372:1,2016-10-01T10:28:00Z,27.7800,-90.5180,34.1,233.0,13.9,-1.9,'1111122,1111122,1111122' 
ADCP,ioos:station:wmo:42372:1,2016-10-01T11:28:00Z,27.7800,-90.5180,34.0,225.0,20.1,-1.8,'1111122,1111122,1111122' 
ADCP,ioos:station:wmo:42372:1,2016-10-01T12:28:00Z,27.7800,-90.5180,34.2,200.0,18.8,0.8,'1111122,1111122,1111122' 
ADCP,ioos:station:wmo:42372:1,2016-10-01T13:28:00Z,27.7800,-90.5180,34.3,193.0,19.3,2.0,'1111122,1111122,1111122' 
ADCP,ioos:station:wmo:42372:1,2016-10-01T14:28:00Z,27.7800,-90.5180,34.4,196.0,16.9,2.0,'1111122,1111122,1111122' 
ADCP,ioos:station:wmo:42372:1,2016-10-01T15:28:00Z,27.7800,-90.5180,34.2,191.0,24.5,2.8,'1111122,1111122,1111122' 
ADCP,ioos:station:wmo:42372:1,2016-10-01T16:28:00Z,27.7800,-90.5180,33.8,202.0,20.6,0.8,'1111122,1111122,1111122' 
ADCP,ioos:station:wmo:42372:1,2016-10-01T19:18:00Z,27.7800,-90.5180,34.2,210.0,22.5,-0.7,'1111122,1111122,1111122' 
ADCP,ioos:station:wmo:42372:1,2016-10-01T20:28:00Z,27.7800,-90.5180,34.3,230.0,21.3,-4.0,'1111122,1111122,1111122' 
ADCP,ioos:station:wmo:42372:1,2016-10-01T22:18:00Z,27.7800,-90.5180,34.3,234.0,16.0,-4.2,'1111122,1111122,1111122' 
ADCP,ioos:station:wmo:42372:1,2016-10-01T23:18:00Z,27.7800,-90.5180,34.1,204.0,23.0,-2.2,'1111122,1111122,1111122' 
ADCP,ioos:station:wmo:42372:1,2016-10-02T00:18:00Z,27.7800,-90.5180,34.0,215.0,17.2,-3.1,'1111122,1111122,1111122' 
ADCP,ioos:station:wmo:42372:1,2016-10-02T00:48:00Z,27.7800,-90.5180,34.1,227.0,15.6,-3.1,'1111122,1111122,1111122' 
ADCP,ioos:station:wmo:42372:1,2016-10-02T02:18:00Z,27.7800,-90.5180,33.8,224.0,13.4,-3.0,'1111122,1111122,1111122' 
ADCP,ioos:station:wmo:42372:1,2016-10-02T04:19:00Z,27.7800,-90.5180,34.0,208.0,12.3,-1.3,'1111122,1111122,1111122' 
ADCP,ioos:station:wmo:42372:1,2016-10-02T05:09:00Z,27.7800,-90.5180,34.0,206.0,12.8,-1.0,'1111122,1111122,1111122' 
ADCP,ioos:station:wmo:42372:1,2016-10-02T06:19:00Z,27.7800,-90.5180,33.8,215.0,14.5,-2.3,'1111122,1111122,1111122' 
ADCP,ioos:station:wmo:42372:1,2016-10-02T08:19:00Z,27.7800,-90.5180,33.9,203.0,11.6,-0.6,'1111122,1111122,1111122' 
ADCP,ioos:station:wmo:42372:1,2016-10-02T08:59:00Z,27.7800,-90.5180,33.8,194.0,9.4,-2.1,'1111122,1111122,1111122' 
ADCP,ioos:station:wmo:42372:1,2016-10-02T10:19:00Z,27.7800,-90.5180,33.9,203.0,9.5,-2.0,'1111122,1111122,1111122' 
ADCP,ioos:station:wmo:42372:1,2016-10-02T10:49:00Z,27.7800,-90.5180,33.8,203.0,11.5,-1.3,'1111122,1111122,1111122' 
ADCP,ioos:station:wmo:42372:1,2016-10-02T12:19:00Z,27.7800,-90.5180,33.6,210.0,12.9,0.0,'1111122,1111122,1114422' 
ADCP,ioos:station:wmo:42372:1,2016-10-02T13:09:00Z,27.7800,-90.5180,34.0,197.0,15.0,0.5,'1111122,1111122,1111122' 
ADCP,ioos:station:wmo:42372:1,2016-10-02T13:49:00Z,27.7800,-90.5180,34.0,191.0,14.9,1.3,'1111122,1111122,1111122' 
ADCP,ioos:station:wmo:42372:1,2016-10-02T14:49:00Z,27.7800,-90.5180,33.6,188.0,21.3,0.3,'1111122,1111122,1111122' 
ADCP,ioos:station:wmo:42372:1,2016-10-02T16:19:00Z,27.7800,-90.5180,33.9,162.0,17.9,1.6,'1111122,1111122,1111122' 
ADCP,ioos:station:wmo:42372:1,2016-10-02T17:19:00Z,27.7800,-90.5180,33.8,152.0,22.6,2.8,'1111122,1111122,1111122' 
ADCP,ioos:station:wmo:42372:1,2016-10-02T18:19:00Z,27.7800,-90.5180,34.1,155.0,28.4,4.3,'1111122,1111122,1111122' 
ADCP,ioos:station:wmo:42372:1,2016-10-02T19:19:00Z,27.7800,-90.5180,33.8,150.0,23.1,2.3,'1111122,1111122,1111122' 
ADCP,ioos:station:wmo:42372:1,2016-10-02T20:19:00Z,27.7800,-90.5180,33.8,181.0,16.6,0.6,'1111122,1111122,1111122' 
ADCP,ioos:station:wmo:42372:1,2016-10-02T21:19:00Z,27.7800,-90.5180,34.0,188.0,22.4,0.7,'1111122,1111122,1111122' 
ADCP,ioos:station:wmo:42372:1,2016-10-02T23:00:00Z,27.7800,-90.5180,34.0,189.0,13.7,-0.8,'1111122,1111122,1111122' 
ADCP,ioos:station:wmo:42372:1,2016-10-03T00:20:00Z,27.7800,-90.5180,33.8,214.0,24.0,-2.1,'1111122,1111122,1111122' 
ADCP,ioos:station:wmo:42372:1,2016-10-03T01:20:00Z,27.7800,-90.5180,33.9,218.0,21.8,-0.8,'1111122,1111122,1111122' 
ADCP,ioos:station:wmo:42372:1,2016-10-03T02:20:00Z,27.7800,-90.5180,33.5,216.0,19.9,0.0,'1111122,1111122,1114422' 
ADCP,ioos:station:wmo:42372:1,2016-10-03T03:00:00Z,27.7800,-90.5180,33.8,221.0,22.7,-2.1,'1111122,1111122,1111122' 
ADCP,ioos:station:wmo:42372:1,2016-10-03T04:20:00Z,27.7800,-90.5180,34.1,223.0,19.6,-3.0,'1111122,1111122,1111122' 
ADCP,ioos:station:wmo:42372:1,2016-10-03T04:50:00Z,27.7800,-90.5180,33.7,204.0,19.3,-1.2,'1111122,1111122,1111122' 
ADCP,ioos:station:wmo:42372:1,2016-10-03T06:20:00Z,27.7800,-90.5180,33.7,198.0,15.4,-3.2,'1111122,1111122,1111122' 
ADCP,ioos:station:wmo:42372:1,2016-10-03T07:50:00Z,27.7800,-90.5180,34.1,206.0,25.2,-2.9,'1111122,1111122,1111122' 
ADCP,ioos:station:wmo:42372:1,2016-10-03T09:10:00Z,27.7800,-90.5180,33.9,193.0,15.0,-1.0,'1111122,1111122,1111122' 
ADCP,ioos:station:wmo:42372:1,2016-10-03T09:50:00Z,27.7800,-90.5180,33.8,201.0,16.2,-0.6,'1111122,1111122,1111122' 
ADCP,ioos:station:wmo:42372:1,2016-10-03T11:20:00Z,27.7800,-90.5180,33.9,199.0,21.8,0.6,'1111122,1111122,1111122' 
ADCP,ioos:station:wmo:42372:1,2016-10-03T11:50:00Z,27.7800,-90.5180,33.9,211.0,17.2,-1.7,'1111122,1111122,1111122' 
ADCP,ioos:station:wmo:42372:1,2016-10-03T13:50:00Z,27.7800,-90.5180,34.0,206.0,21.8,-1.1,'1111122,1111122,1111122' 
ADCP,ioos:station:wmo:42372:1,2016-10-03T14:50:00Z,27.7800,-90.5180,34.0,196.0,20.4,-1.2,'1111122,1111122,1111122' 
ADCP,ioos:station:wmo:42372:1,2016-10-03T16:21:00Z,27.7800,-90.5180,33.9,222.0,24.6,-1.6,'1111122,1111122,1111122' 
ADCP,ioos:station:wmo:42372:1,2016-10-03T17:21:00Z,27.7800,-90.5180,34.0,207.0,26.3,-2.2,'1111122,1111122,1111122' 
ADCP,ioos:station:wmo:42372:1,2016-10-03T18:21:00Z,27.7800,-90.5180,33.9,165.0,26.5,3.0,'1111122,1111122,1111122' 
ADCP,ioos:station:wmo:42372:1,2016-10-03T19:21:00Z,27.7800,-90.5180,34.1,162.0,20.4,2.5,'1111122,1111122,1111122' 
ADCP,ioos:station:wmo:42372:1,2016-10-03T20:21:00Z,27.7800,-90.5180,34.0,183.0,22.5,2.6,'1111122,1111122,1111122' 
ADCP,ioos:station:wmo:42372:1,2016-10-03T21:21:00Z,27.7800,-90.5180,34.0,188.0,22.5,1.4,'1111122,1111122,1111122' 
ADCP,ioos:station:wmo:42372:1,2016-10-03T22:21:00Z,27.7800,-90.5180,34.0,210.0,21.5,-1.8,'1111122,1111122,1111122' 
ADCP,ioos:station:wmo:42372:1,2016-10-03T23:21:00Z,27.7800,-90.5180,34.1,217.0,18.9,-1.7,'1111122,1111122,1111122' 
ADCP,ioos:station:wmo:42372:1,2016-10-03T23:51:00Z,27.7800,-90.5180,34.0,212.0,19.9,-0.5,'1111122,1111122,1111122' 
ADCP,ioos:station:wmo:42372:1,2016-10-04T01:21:00Z,27.7800,-90.5180,33.9,221.0,17.4,-2.0,'1111122,1111122,1111122' 
ADCP,ioos:station:wmo:42372:1,2016-10-04T01:51:00Z,27.7800,-90.5180,34.0,220.0,14.3,-1.7,'1111122,1111122,1111122' 
ADCP,ioos:station:wmo:42372:1,2016-10-04T03:21:00Z,27.7800,-90.5180,33.8,206.0,16.0,-0.3,'1111122,1111122,1111122' 
ADCP,ioos:station:wmo:42372:1,2016-10-04T03:51:00Z,27.7800,-90.5180,33.9,188.0,14.8,0.7,'1111122,1111122,1111122' 
ADCP,ioos:station:wmo:42372:1,2016-10-04T04:51:00Z,27.7800,-90.5180,33.8,190.0,17.9,0.0,'1111122,1111122,1114422' 
ADCP,ioos:station:wmo:42372:1,2016-10-04T05:51:00Z,27.7800,-90.5180,33.8,187.0,29.2,0.5,'1111122,1111122,1111122' 
ADCP,ioos:station:wmo:42372:1,2016-10-04T07:21:00Z,27.7800,-90.5180,33.9,192.0,32.9,-0.9,'1111122,1111122,1111122' 
ADCP,ioos:station:wmo:42372:1,2016-10-04T09:21:00Z,27.7800,-90.5180,34.0,204.0,37.2,-1.2,'1111122,1111122,1111122' 
ADCP,ioos:station:wmo:42372:1,2016-10-04T09:51:00Z,27.7800,-90.5180,34.0,204.0,37.3,-2.1,'1111122,1111122,1111122' 
ADCP,ioos:station:wmo:42372:1,2016-10-04T10:52:00Z,27.7800,-90.5180,33.7,208.0,39.9,-1.5,'1111122,1111122,1111122' 
ADCP,ioos:station:wmo:42372:1,2016-10-04T12:22:00Z,27.7800,-90.5180,33.6,210.0,37.2,-2.5,'1111122,1111122,1111122' 
ADCP,ioos:station:wmo:42372:1,2016-10-04T13:22:00Z,27.7800,-90.5180,33.9,202.0,39.0,-2.0,'1111122,1111122,1111122' 
ADCP,ioos:station:wmo:42372:1,2016-10-04T13:52:00Z,27.7800,-90.5180,33.9,204.0,32.4,-4.8,'1111122,1111122,1111122' 
ADCP,ioos:station:wmo:42372:1,2016-10-04T14:52:00Z,27.7800,-90.5180,33.7,204.0,38.1,-1.6,'1111122,1111122,1111122' 
ADCP,ioos:station:wmo:42372:1,2016-10-04T16:22:00Z,27.7800,-90.5180,33.6,209.0,34.1,-1.4,'1111122,1111122,1111122' 
ADCP,ioos:station:wmo:42372:1,2016-10-04T17:22:00Z,27.7800,-90.5180,33.9,216.0,32.8,-3.0,'1111122,1111122,1111122' 
ADCP,ioos:station:wmo:42372:1,2016-10-04T19:22:00Z,27.7800,-90.5180,33.7,214.0,27.8,0.7,'1111122,1111122,1111122' 
ADCP,ioos:station:wmo:42372:1,2016-10-04T20:22:00Z,27.7800,-90.5180,33.8,221.0,27.1,-0.6,'1111122,1111122,1111122' 
ADCP,ioos:station:wmo:42372:1,2016-10-04T21:22:00Z,27.7800,-90.5180,33.9,209.0,16.9,-0.5,'1111122,1111122,1111122' 
ADCP,ioos:station:wmo:42372:1,2016-10-04T22:22:00Z,27.7800,-90.5180,33.9,202.0,21.4,1.2,'1111122,1111122,1111122' 
ADCP,ioos:station:wmo:42372:1,2016-10-05T00:22:00Z,27.7800,-90.5180,34.0,207.0,28.9,0.8,'1111122,1111122,1111122' 
ADCP,ioos:station:wmo:42372:1,2016-10-05T01:22:00Z,27.7800,-90.5180,34.0,221.0,36.0,-1.0,'1111122,1111122,1111122' 
ADCP,ioos:station:wmo:42372:1,2016-10-05T01:52:00Z,27.7800,-90.5180,33.9,219.0,35.2,0.3,'1111122,1111122,1111122' 
ADCP,ioos:station:wmo:42372:1,2016-10-05T02:52:00Z,27.7800,-90.5180,33.9,214.0,29.5,-0.3,'1111122,1111122,1111122' 
ADCP,ioos:station:wmo:42372:1,2016-10-05T04:23:00Z,27.7800,-90.5180,34.0,217.0,28.4,-1.7,'1111122,1111122,1111122' 
ADCP,ioos:station:wmo:42372:1,2016-10-05T04:53:00Z,27.7800,-90.5180,34.1,213.0,30.1,-0.8,'1111122,1111122,1111122' 
ADCP,ioos:station:wmo:42372:1,2016-10-05T06:23:00Z,27.7800,-90.5180,33.8,206.0,26.5,-0.7,'1111122,1111122,1111122' 
ADCP,ioos:station:wmo:42372:1,2016-10-05T07:23:00Z,27.7800,-90.5180,33.8,206.0,27.8,-1.9,'1111122,1111122,1111122' 
ADCP,ioos:station:wmo:42372:1,2016-10-05T08:23:00Z,27.7800,-90.5180,34.2,203.0,26.1,-1.6,'1111122,1111122,1111122' 
ADCP,ioos:station:wmo:42372:1,2016-10-05T09:23:00Z,27.7800,-90.5180,33.8,210.0,34.0,-1.9,'1111122,1111122,1111122' 
ADCP,ioos:station:wmo:42372:1,2016-10-05T10:23:00Z,27.7800,-90.5180,33.9,209.0,30.6,-2.5,'1111122,1111122,1111122' 
ADCP,ioos:station:wmo:42372:1,2016-10-05T11:23:00Z,27.7800,-90.5180,33.9,205.0,37.5,-2.4,'1111122,1111122,1111122' 
ADCP,ioos:station:wmo:42372:1,2016-10-05T12:23:00Z,27.7800,-90.5180,33.9,208.0,32.5,-2.7,'1111122,1111122,1111122' 
ADCP,ioos:station:wmo:42372:1,2016-10-05T13:23:00Z,27.7800,-90.5180,33.9,210.0,40.0,-1.1,'1111122,1111122,1111122' 
ADCP,ioos:station:wmo:42372:1,2016-10-05T14:23:00Z,27.7800,-90.5180,34.0,204.0,40.0,2.2,'1111122,1111122,1111122' 
ADCP,ioos:station:wmo:42372:1,2016-10-05T15:23:00Z,27.7800,-90.5180,33.9,208.0,39.0,0.9,'1111122,1111122,1111122' 
ADCP,ioos:station:wmo:42372:1,2016-10-05T16:23:00Z,27.7800,-90.5180,34.1,213.0,38.5,-0.5,'1111122,1111122,1111122' 
ADCP,ioos:station:wmo:42372:1,2016-10-05T17:23:00Z,27.7800,-90.5180,33.7,213.0,37.7,0.4,'1111122,1111122,1111122' 
ADCP,ioos:station:wmo:42372:1,2016-10-05T19:23:00Z,27.7800,-90.5180,33.8,196.0,28.8,1.6,'1111122,1111122,1111122' 
ADCP,ioos:station:wmo:42372:1,2016-10-05T20:23:00Z,27.7800,-90.5180,34.0,210.0,26.9,0.7,'1111122,1111122,1111122' 
ADCP,ioos:station:wmo:42372:1,2016-10-05T21:23:00Z,27.7800,-90.5180,33.9,207.0,26.9,1.5,'1111122,1111122,1111122' 
ADCP,ioos:station:wmo:42372:1,2016-10-05T23:24:00Z,27.7800,-90.5180,33.8,215.0,31.5,1.2,'1111122,1111122,1111122' 
ADCP,ioos:station:wmo:42372:1,2016-10-06T00:24:00Z,27.7800,-90.5180,34.0,221.0,30.8,0.3,'1111122,1111122,1111122' 
ADCP,ioos:station:wmo:42372:1,2016-10-06T01:24:00Z,27.7800,-90.5180,33.9,231.0,32.9,-0.5,'1111122,1111122,1111122' 
ADCP,ioos:station:wmo:42372:1,2016-10-06T02:24:00Z,27.7800,-90.5180,33.9,231.0,29.0,-0.2,'1111122,1111122,1111122' 
ADCP,ioos:station:wmo:42372:1,2016-10-06T03:24:00Z,27.7800,-90.5180,33.9,224.0,26.5,0.2,'1111122,1111122,1111122' 
ADCP,ioos:station:wmo:42372:1,2016-10-06T04:24:00Z,27.7800,-90.5180,34.1,217.0,24.6,1.4,'1111122,1111122,1111122' 
ADCP,ioos:station:wmo:42372:1,2016-10-06T05:54:00Z,27.7800,-90.5180,33.9,219.0,28.4,2.5,'1111122,1111122,1111122' 
ADCP,ioos:station:wmo:42372:1,2016-10-06T07:24:00Z,27.7800,-90.5180,34.0,212.0,25.7,1.1,'1111122,1111122,1111122' 
ADCP,ioos:station:wmo:42372:1,2016-10-06T09:24:00Z,27.7800,-90.5180,34.0,210.0,28.9,-0.4,'1111122,1111122,1111122' 
ADCP,ioos:station:wmo:42372:1,2016-10-06T10:24:00Z,27.7800,-90.5180,33.9,217.0,32.3,-2.3,'1111122,1111122,1111122' 
ADCP,ioos:station:wmo:42372:1,2016-10-06T11:24:00Z,27.7800,-90.5180,33.7,201.0,28.8,-0.7,'1111122,1111122,1111122' 
ADCP,ioos:station:wmo:42372:1,2016-10-06T14:24:00Z,27.7800,-90.5180,33.9,190.0,31.6,0.3,'1111122,1111122,1111122' 
ADCP,ioos:station:wmo:42372:1,2016-10-06T15:24:00Z,27.7800,-90.5180,33.8,194.0,41.2,-0.2,'1111122,1111122,1111122' 
ADCP,ioos:station:wmo:42372:1,2016-10-06T16:25:00Z,27.7800,-90.5180,34.0,202.0,47.9,-0.8,'1111122,1111122,1111122' 
ADCP,ioos:station:wmo:42372:1,2016-10-06T17:25:00Z,27.7800,-90.5180,33.9,207.0,44.8,-1.2,'1111122,1111122,1111122' 
ADCP,ioos:station:wmo:42372:1,2016-10-06T18:25:00Z,27.7800,-90.5180,33.9,204.0,42.5,-1.5,'1111122,1111122,1111122' 
ADCP,ioos:station:wmo:42372:1,2016-10-06T19:25:00Z,27.7800,-90.5180,34.1,204.0,37.5,-2.4,'1111122,1111122,1111122' 
ADCP,ioos:station:wmo:42372:1,2016-10-06T20:25:00Z,27.7800,-90.5180,34.0,211.0,39.9,-1.8,'1111122,1111122,1111122' 
ADCP,ioos:station:wmo:42372:1,2016-10-06T21:25:00Z,27.7800,-90.5180,33.8,221.0,38.1,-1.9,'1111122,1111122,1111122' 
ADCP,ioos:station:wmo:42372:1,2016-10-06T22:25:00Z,27.7800,-90.5180,33.7,222.0,36.1,-3.2,'1111122,1111122,1111122' 
ADCP,ioos:station:wmo:42372:1,2016-10-06T22:55:00Z,27.7800,-90.5180,33.7,214.0,36.7,-1.0,'1111122,1111122,1111122' 
ADCP,ioos:station:wmo:42372:1,2016-10-07T00:05:00Z,27.7800,-90.5180,34.0,217.0,39.5,0.5,'1111122,1111122,1111122' 
ADCP,ioos:station:wmo:42372:1,2016-10-07T01:25:00Z,27.7800,-90.5180,33.9,219.0,35.0,0.3,'1111122,1111122,1111122' 
ADCP,ioos:station:wmo:42372:1,2016-10-07T01:55:00Z,27.7800,-90.5180,33.8,226.0,30.8,-0.2,'1111122,1111122,1111122' 
ADCP,ioos:station:wmo:42372:1,2016-10-07T02:55:00Z,27.7800,-90.5180,33.9,229.0,30.5,0.6,'1111122,1111122,1111122' 
ADCP,ioos:station:wmo:42372:1,2016-10-07T04:25:00Z,27.7800,-90.5180,34.1,229.0,26.4,-0.5,'1111122,1111122,1111122' 
ADCP,ioos:station:wmo:42372:1,2016-10-07T05:25:00Z,27.7800,-90.5180,33.8,210.0,28.6,1.7,'1111122,1111122,1111122' 
ADCP,ioos:station:wmo:42372:1,2016-10-07T06:25:00Z,27.7800,-90.5180,33.7,207.0,25.2,1.8,'1111122,1111122,1111122' 
ADCP,ioos:station:wmo:42372:1,2016-10-07T07:25:00Z,27.7800,-90.5180,33.8,221.0,31.4,-1.2,'1111122,1111122,1111122' 
ADCP,ioos:station:wmo:42372:1,2016-10-07T08:25:00Z,27.7800,-90.5180,33.9,224.0,22.3,-2.1,'1111122,1111122,1111122' 
ADCP,ioos:station:wmo:42372:1,2016-10-07T09:25:00Z,27.7800,-90.5180,33.8,208.0,17.7,-0.5,'1111122,1111122,1111122' 
ADCP,ioos:station:wmo:42372:1,2016-10-07T10:26:00Z,27.7800,-90.5180,34.1,211.0,16.2,-0.8,'1111122,1111122,1111122' 
ADCP,ioos:station:wmo:42372:1,2016-10-07T11:26:00Z,27.7800,-90.5180,33.8,199.0,18.0,0.6,'1111122,1111122,1111122' 
ADCP,ioos:station:wmo:42372:1,2016-10-07T13:26:00Z,27.7800,-90.5180,33.8,197.0,28.2,0.2,'1111122,1111122,1111122' 
ADCP,ioos:station:wmo:42372:1,2016-10-07T13:56:00Z,27.7800,-90.5180,33.9,193.0,27.0,0.4,'1111122,1111122,1111122' 
ADCP,ioos:station:wmo:42372:1,2016-10-07T14:56:00Z,27.7800,-90.5180,34.0,183.0,33.6,0.9,'1111122,1111122,1111122' 
ADCP,ioos:station:wmo:42372:1,2016-10-07T15:56:00Z,27.7800,-90.5180,33.9,191.0,34.9,-0.3,'1111122,1111122,1111122' 
ADCP,ioos:station:wmo:42372:1,2016-10-07T16:46:00Z,27.7800,-90.5180,33.9,199.0,42.6,-1.5,'1111122,1111122,1111122' 
ADCP,ioos:station:wmo:42372:1,2016-10-08T19:23:00Z,27.7800,-90.5180,34.0,130.0,24.6,2.9,'1111122,1111122,1111122' 
ADCP,ioos:station:wmo:42372:1,2016-10-08T20:03:00Z,27.7800,-90.5180,33.9,147.0,25.3,1.9,'1111122,1111122,1111122' 
ADCP,ioos:station:wmo:42372:1,2016-10-09T12:15:00Z,27.7800,-90.5180,34.0,191.0,22.8,3.1,'1111122,1111122,1111122' 
ADCP,ioos:station:wmo:42372:1,2016-10-09T13:16:00Z,27.7800,-90.5180,33.9,174.0,28.8,3.2,'1111122,1111122,1111122' 
ADCP,ioos:station:wmo:42372:1,2016-10-09T14:16:00Z,27.7800,-90.5180,33.9,185.0,31.9,2.0,'1111122,1111122,1111122' 
ADCP,ioos:station:wmo:42372:1,2016-10-09T15:16:00Z,27.7800,-90.5180,33.9,178.0,25.2,2.2,'1111122,1111122,1111122' 
ADCP,ioos:station:wmo:42372:1,2016-10-09T16:16:00Z,27.7800,-90.5180,34.0,169.0,25.5,1.2,'1111122,1111122,1111122' 
ADCP,ioos:station:wmo:42372:1,2016-10-09T17:16:00Z,27.7800,-90.5180,33.8,152.0,25.4,2.7,'1111122,1111122,1111122' 
ADCP,ioos:station:wmo:42372:1,2016-10-09T18:16:00Z,27.7800,-90.5180,34.0,159.0,24.9,1.4,'1111122,1111122,1111122' 
ADCP,ioos:station:wmo:42372:1,2016-10-09T19:16:00Z,27.7800,-90.5180,34.1,136.0,17.0,0.9,'1111122,1111122,1111122' 
ADCP,ioos:station:wmo:42372:1,2016-10-09T20:16:00Z,27.7800,-90.5180,33.9,141.0,17.5,-0.4,'1111122,1111122,1111122' 
ADCP,ioos:station:wmo:42372:1,2016-10-09T21:16:00Z,27.7800,-90.5180,34.0,147.0,14.2,1.1,'1111122,1111122,1111122' 
ADCP,ioos:station:wmo:42372:1,2016-10-09T22:16:00Z,27.7800,-90.5180,34.2,167.0,17.5,-0.2,'1111122,1111122,1111122' 
ADCP,ioos:station:wmo:42372:1,2016-10-09T23:16:00Z,27.7800,-90.5180,34.0,197.0,26.4,-5.0,'1111122,1111122,1111122' 
ADCP,ioos:station:wmo:42372:1,2016-10-10T00:16:00Z,27.7800,-90.5180,34.1,188.0,38.3,-1.6,'1111122,1111122,1111122' 
ADCP,ioos:station:wmo:42372:1,2016-10-10T00:46:00Z,27.7800,-90.5180,34.2,193.0,39.2,0.1,'1111122,1111122,1111122' 
ADCP,ioos:station:wmo:42372:1,2016-10-10T02:16:00Z,27.7800,-90.5180,34.3,186.0,37.8,2.2,'1111122,1111122,1111122' 
ADCP,ioos:station:wmo:42372:1,2016-10-10T03:16:00Z,27.7800,-90.5180,34.3,180.0,31.1,2.1,'1111122,1111122,1111122' 
ADCP,ioos:station:wmo:42372:1,2016-10-10T04:16:00Z,27.7800,-90.5180,34.1,185.0,27.5,2.6,'1111122,1111122,1111122' 
ADCP,ioos:station:wmo:42372:1,2016-10-10T05:16:00Z,27.7800,-90.5180,34.1,195.0,28.0,1.8,'1111122,1111122,1111122' 
ADCP,ioos:station:wmo:42372:1,2016-10-10T06:16:00Z,27.7800,-90.5180,34.0,201.0,28.5,1.3,'1111122,1111122,1111122' 
ADCP,ioos:station:wmo:42372:1,2016-10-10T07:17:00Z,27.7800,-90.5180,34.0,198.0,33.2,2.5,'1111122,1111122,1111122' 
ADCP,ioos:station:wmo:42372:1,2016-10-10T08:17:00Z,27.7800,-90.5180,34.4,191.0,34.4,3.7,'1111122,1111122,1111122' 
ADCP,ioos:station:wmo:42372:1,2016-10-10T09:17:00Z,27.7800,-90.5180,34.4,186.0,32.8,3.5,'1111122,1111122,1111122' 
ADCP,ioos:station:wmo:42372:1,2016-10-10T10:17:00Z,27.7800,-90.5180,34.4,192.0,30.9,1.7,'1111122,1111122,1111122' 
ADCP,ioos:station:wmo:42372:1,2016-10-10T11:17:00Z,27.7800,-90.5180,34.2,195.0,34.2,2.4,'1111122,1111122,1111122' 
ADCP,ioos:station:wmo:42372:1,2016-10-10T12:17:00Z,27.7800,-90.5180,34.2,198.0,39.8,2.7,'1111122,1111122,1111122' 
ADCP,ioos:station:wmo:42372:1,2016-10-10T13:17:00Z,27.7800,-90.5180,34.2,201.0,38.8,2.8,'1111122,1111122,1111122' 
ADCP,ioos:station:wmo:42372:1,2016-10-10T14:17:00Z,27.7800,-90.5180,34.1,199.0,32.5,2.7,'1111122,1111122,1111122' 
ADCP,ioos:station:wmo:42372:1,2016-10-10T15:17:00Z,27.7800,-90.5180,34.0,204.0,28.8,1.1,'1111122,1111122,1111122' 
ADCP,ioos:station:wmo:42372:1,2016-10-10T16:17:00Z,27.7800,-90.5180,34.0,168.0,20.4,2.2,'1111122,1111122,1111122' 
ADCP,ioos:station:wmo:42372:1,2016-10-10T17:17:00Z,27.7800,-90.5180,33.6,176.0,15.5,0.1,'1111122,1111122,1111122' 
ADCP,ioos:station:wmo:42372:1,2016-10-10T18:17:00Z,27.7800,-90.5180,33.9,164.0,14.8,-0.1,'1111122,1111122,1111122' 
ADCP,ioos:station:wmo:42372:1,2016-10-10T19:17:00Z,27.7800,-90.5180,33.9,163.0,20.8,-0.2,'1111122,1111122,1111122' 
ADCP,ioos:station:wmo:42372:1,2016-10-10T20:17:00Z,27.7800,-90.5180,34.0,183.0,17.7,-2.3,'1111122,1111122,1111122' 
ADCP,ioos:station:wmo:42372:1,2016-10-10T21:17:00Z,27.7800,-90.5180,33.9,166.0,11.3,-1.2,'1111122,1111122,1111122' 
ADCP,ioos:station:wmo:42372:1,2016-10-10T22:17:00Z,27.7800,-90.5180,33.9,193.0,13.4,-6.1,'1111122,1111122,1111122' 
ADCP,ioos:station:wmo:42372:1,2016-10-10T23:17:00Z,27.7800,-90.5180,33.9,212.0,31.9,-9.1,'1111122,1111122,1111122' 
ADCP,ioos:station:wmo:42372:1,2016-10-11T00:17:00Z,27.7800,-90.5180,34.2,203.0,46.4,-6.3,'1111122,1111122,1111122' 
ADCP,ioos:station:wmo:42372:1,2016-10-11T01:18:00Z,27.7800,-90.5180,34.0,193.0,35.3,-5.6,'1111122,1111122,1111122' 
ADCP,ioos:station:wmo:42372:1,2016-10-11T02:18:00Z,27.7800,-90.5180,34.0,217.0,25.3,-6.5,'1111122,1111122,1111122' 
ADCP,ioos:station:wmo:42372:1,2016-10-11T03:18:00Z,27.7800,-90.5180,34.3,205.0,25.7,-2.7,'1111122,1111122,1111122' 
ADCP,ioos:station:wmo:42372:1,2016-10-11T04:18:00Z,27.7800,-90.5180,34.1,180.0,22.4,0.1,'1111122,1111122,1111122' 
ADCP,ioos:station:wmo:42372:1,2016-10-11T05:18:00Z,27.7800,-90.5180,34.0,179.0,31.0,1.8,'1111122,1111122,1111122' 
ADCP,ioos:station:wmo:42372:1,2016-10-11T06:18:00Z,27.7800,-90.5180,34.1,195.0,26.2,0.9,'1111122,1111122,1111122' 
ADCP,ioos:station:wmo:42372:1,2016-10-11T08:08:00Z,27.7800,-90.5180,34.1,203.0,27.4,1.1,'1111122,1111122,1111122' 
ADCP,ioos:station:wmo:42372:1,2016-10-11T09:18:00Z,27.7800,-90.5180,33.9,212.0,27.8,-0.6,'1111122,1111122,1111122' 
ADCP,ioos:station:wmo:42372:1,2016-10-11T10:18:00Z,27.7800,-90.5180,34.0,218.0,34.4,0.1,'1111122,1111122,1111122' 
ADCP,ioos:station:wmo:42372:1,2016-10-11T11:18:00Z,27.7800,-90.5180,33.9,227.0,23.8,0.4,'1111122,1111122,1111122' 
ADCP,ioos:station:wmo:42372:1,2016-10-11T12:18:00Z,27.7800,-90.5180,34.0,224.0,29.8,0.9,'1111122,1111122,1111122' 
ADCP,ioos:station:wmo:42372:1,2016-10-11T13:18:00Z,27.7800,-90.5180,34.0,235.0,26.5,-0.8,'1111122,1111122,1111122' 
ADCP,ioos:station:wmo:42372:1,2016-10-11T14:18:00Z,27.7800,-90.5180,33.8,229.0,28.4,0.6,'1111122,1111122,1111122' 
ADCP,ioos:station:wmo:42372:1,2016-10-11T15:18:00Z,27.7800,-90.5180,33.9,253.0,23.6,-3.1,'1111122,1111122,1111122' 
ADCP,ioos:station:wmo:42372:1,2016-10-11T16:18:00Z,27.7800,-90.5180,34.1,247.0,14.6,-0.4,'1111122,1111122,1111122' 
ADCP,ioos:station:wmo:42372:1,2016-10-11T17:18:00Z,27.7800,-90.5180,34.0,234.0,13.0,-3.0,'1111122,1111122,1111122' 
ADCP,ioos:station:wmo:42372:1,2016-10-11T18:18:00Z,27.7800,-90.5180,34.0,225.0,10.8,-1.8,'1111122,1111122,1111122' 
ADCP,ioos:station:wmo:42372:1,2016-10-11T19:19:00Z,27.7800,-90.5180,34.1,197.0,17.6,0.6,'1111122,1111122,1111122' 
ADCP,ioos:station:wmo:42372:1,2016-10-11T20:19:00Z,27.7800,-90.5180,34.2,214.0,14.6,-5.0,'1111122,1111122,1111122' 
ADCP,ioos:station:wmo:42372:1,2016-10-11T21:19:00Z,27.7800,-90.5180,34.0,196.0,16.3,-3.5,'1111122,1111122,1111122' 
ADCP,ioos:station:wmo:42372:1,2016-10-11T22:19:00Z,27.7800,-90.5180,34.3,199.0,24.5,-0.6,'1111122,1111122,1111122' 
ADCP,ioos:station:wmo:42372:1,2016-10-11T22:59:00Z,27.7800,-90.5180,34.3,203.0,24.4,-1.4,'1111122,1111122,1111122' 
ADCP,ioos:station:wmo:42372:1,2016-10-12T00:19:00Z,27.7800,-90.5180,34.4,206.0,27.7,-0.9,'1111122,1111122,1111122' 
ADCP,ioos:station:wmo:42372:1,2016-10-12T00:49:00Z,27.7800,-90.5180,34.1,205.0,27.4,-0.2,'1111122,1111122,1111122' 
ADCP,ioos:station:wmo:42372:1,2016-10-12T01:49:00Z,27.7800,-90.5180,34.3,214.0,20.3,-2.4,'1111122,1111122,1111122' 
ADCP,ioos:station:wmo:42372:1,2016-10-12T03:19:00Z,27.7800,-90.5180,34.4,215.0,25.0,-1.3,'1111122,1111122,1111122' 